Flag for Canada Weather past 2 weeks in Rainy River, Ontario, Canada

Now
53 °F

Sunny.


Feels Like: 49 °F
Forecast: 34 / 61 °F
Wind: 14 mph from South

Location: Baudette International Airport


UV Index: 0 (Low)

Visibility: 10 mi


Pressure: 29.81 "Hg

Humidity: 64%

Dew point: 41 °F

Location of Rainy RiverLocation

Historic Weather in Rainy River

°F

Rainy River temperature yesterday

Maximum temperature yesterday: 48 °F (at 4:53 PM)
Minimum temperature yesterday: 19 °F (at 3:53 AM)
Average temperature yesterday: 35 °F

Past Weeks' High & Low Weather Summary

 TemperatureHumidityPressure
High56 °F (Apr 9, 3:53 PM)100% (Apr 5, 5:02 AM)30.40 "Hg (Apr 5, 5:02 AM)
Low5 °F (Apr 15, 6:53 AM)25% (Apr 6, 4:53 PM)29.37 "Hg (Apr 9, 3:53 PM)
Average33 °F63%29.99 "Hg
* Reported Apr 4 11:53 AM — Apr 19 11:53 AM, Rainy River, Weather by CustomWeather, © 2014

Note: Actual official high and low records may vary slightly from our data, if they occured in-between our weather recording intervals... More about our weather records

Advertising

Historic Weather Conditions — Data for Previous 24 hours

 ConditionsComfort  
Time TempWeatherWind HumidityBarometerVisibility
11:53 AM
Apr 19
48 °FPartly sunny.17 mph71%29.82 "Hg10 mi
10:53 AM43 °FOvercast.12 mph76%29.84 "Hg10 mi
9:53 AM40 °FOvercast.13 mph77%29.86 "Hg10 mi
8:53 AM38 °FOvercast.10 mph79%29.87 "Hg10 mi
7:53 AM36 °FOvercast.14 mph82%29.90 "Hg10 mi
6:53 AM35 °FOvercast.18 mph82%29.91 "Hg10 mi
5:53 AM34 °FOvercast.18 mph85%29.93 "Hg10 mi
4:53 AM34 °FLight rain. Mostly cloudy.16 mph85%29.96 "Hg10 mi
3:53 AM34 °FLight rain. Overcast.24 mph82%29.97 "Hg9 mi
3:00 AM34 °FLight freezing rain. Overcast.18 mph76%29.99 "Hg6 mi
1:53 AM35 °FOvercast.21 mph70%30.10 "Hg10 mi
12:53 AM36 °FOvercast.22 mph67%30.13 "Hg10 mi
11:53 PM
Apr 18
38 °FOvercast.14 mph60%30.17 "Hg10 mi
10:53 PM42 °FOvercast.16 mph39%30.20 "Hg10 mi
9:53 PM41 °FOvercast.9 mph39%30.20 "Hg10 mi
8:53 PM42 °FOvercast.14 mph36%30.20 "Hg10 mi
7:53 PM42 °FOvercast.13 mph36%30.21 "Hg10 mi
6:53 PM45 °FSunny.17 mph31%30.22 "Hg10 mi
5:53 PM46 °FSunny.18 mph29%30.24 "Hg10 mi
4:53 PM48 °FSunny.17 mph25%30.27 "Hg10 mi
3:53 PM47 °FSunny.14 mph28%30.29 "Hg10 mi
2:53 PM46 °FSunny.14 mph27%30.31 "Hg10 mi
1:53 PM45 °FSunny.10 mph33%30.34 "Hg10 mi
Weather by CustomWeather, © 2014

See weather overview